THOR ABLESTAR DEB, 325

Orbit data source: Space-Track

THOR ABLESTAR DEB, 325 is space debris in LEO originally from a launch on Thu, 29 Jun 1961 UTC launched from the Air Force Eastern Test Range (AFETR). Debris objects in space refer to the collection of defunct objects orbiting the Earth. Examples of debris include non-operational satellites, rocket bodies, and fragments generated from explosions, collisions, or faulty payload assembly.

Loading next visibility...
Identifier
325, 1961-015DB
Orbit
LEO
Last TLE update
20 hours ago
Origin
Manufacturer
Unknown
Mission
Spacecraft
Bus & Motor
Unknown
Mass
Unknown
Launch date (UTC)
1961-06-29 (64 years ago)
Launch vehicle
Unknown
Launch site
Air Force Eastern Test Range (AFETR)
Object type
Payload
Rocket body
Debris
Shape & HBR
Unknown
Radar Cross Section
Small (<0.1 m²)

Expand to show TLE details & history

TLE from 20 hours ago
0 THOR ABLESTAR DEB
1 00325U 61015DB  25128.50290783  .00001334  00000-0  62465-3 0  9992
2 00325  66.9150  60.5191 0061546 332.0854  27.6943 14.22259549275590
Epoch: 2025-05-08T12:04Z
Definitive object data (Epoch: 2025-05-08T12:04:11.236Z)
Latitude
-0.0001°
Longitude
12.89977°
Altitude
780.678 km
Speed
7.484 km/s
True Right ascension
04h 02m 04s
True Declination
0° 00' 00"
Sunlit
Object was in daylight at TLE epoch
Visualization TLE readout
Latitude
32.10662°
Longitude
26.15029°
Altitude
801.228 km
Speed
7.466 km/s
Apparent Right ascension
04h 47m 35s
Apparent Declination
-1° 25' 57"
Sunlit
Object is in daylight
Visualization observer readout
Local Sidereal Time
16:38:17
Azimuth
356.268° N
Elevation
-51.458°
Doppler factor
1
Orbital elements
Apogee altitude
860.355 km
Perigee altitude
771.8 km
Semi-major axis
7,194.214 km
Eccentricity
0.0061546
Inclination
66.915°
RAAN
60.5191°
Arg. of periapsis
332.0854°
True anomaly
28.02432°
Mean anomaly
27.6943°
Eccentric anomaly
27.85908°
Mean motion
3.55687 °/min
BSTAR
0.00062465
Orbital period
101.21 mins
Loading maneuver chart data...
Loading SW <> Apogee altitude chart data...

THOR ABLESTAR DEB Visibility forecast

Observer location: undefined°, undefined°

Span
Click to sort rows by Start time (UTC) header in descending order
Start Az.
Max El. time (UTC)
Max El. Az.
Max El.
End time (UTC)
End Az.
9 mins2025-05-09 20:15:07.367Z177.211° S2025-05-09 20:19:07.367Z123.701° SE32.657°2025-05-09 20:24:07.367Z45.274° ENE
8 mins2025-05-09 22:00:07.367Z257.243° W2025-05-09 22:04:07.367Z318.452° NNW25.983°2025-05-09 22:08:07.367Z7.862° NNE
9 mins2025-05-10 05:07:07.367Z355.321° N2025-05-10 05:11:07.367Z55.464° ENE29.331°2025-05-10 05:16:07.367Z116.502° SE
9 mins2025-05-10 06:51:07.367Z308.27° NW2025-05-10 06:55:07.367Z246.788° WSW31.418°2025-05-10 07:00:07.367Z184.261° SSW
|